National Weather Service United States Department of Commerce

Latest Hourly Weather Roundup

TOPSWRTT 000
TTAA00 KICT 060212

Wichita AWIPS Roundup
National Weather Service Wichita KS
900 PM CDT THU AUG 05 2021

....Central Kansas....
  
CITY           SKY/WX    TMP DP  RH WIND       PRES   REMARKS
RUSSELL        CLEAR     82  54  37 S10       29.95R HX  81           
SALINA         PTCLDY    85  61  44 S13G22    29.95S HX  85           
GREAT BEND     CLEAR     78  60  53 S9        29.99R                  
ELLSWORTH      CLEAR     82  54  36 S6        29.96S HX  81           
LYONS          FAIR      80  61  52 S9        29.99R HX  81           
MCPHERSON      CLEAR     82  64  54 S12       29.99S HX  84           
HAYS           CLEAR     79  57  46 SE8       29.97R HX  80           

....South Central Kansas....
  
CITY           SKY/WX    TMP DP  RH WIND       PRES   REMARKS
HUTCHINSON     PTCLDY    84  61  45 S14       29.99R HX  84           
NEWTON         CLEAR    N/A N/A N/A S12       30.00F                  
KINGMAN        CLEAR     79  61  53 SE9       30.00S HX  80           
WICHITA (ICT)  PTCLDY    79  64  60 S9        29.99S HX  81           
JABARA ARPT    CLEAR     81  65  58 S9        30.00S HX  83           
BEECH ARPT     CLEAR     78  65  64 S8        30.01S HX  80           
MCCONNELL AFB  CLEAR     81  66  61 S10       30.00S HX  83           
BENTON         FAIR      78  65  66 SE5       30.01R                  
EL DORADO      FAIR      79  66  65 S10       30.01S HX  81           
AUGUSTA        CLEAR     79  61  53 SE8       30.01R HX  80           
WELLINGTON     NOT AVBL                                               
WINFIELD       CLEAR     78  69  73 S10       30.02S HX  80           
 
....Southeast Kansas....
  
CITY           SKY/WX    TMP DP  RH WIND       PRES   REMARKS
EUREKA         PTCLDY    78  70  75 S14       30.02R HX  80           
IOLA           FAIR      73  69  86 SE6       30.03S                  
CHANUTE        PTCLDY    77  71  82 S7        30.02S                  
PARSONS        LGT RAIN  75  70  84 S8        30.03S                  
COFFEYVILLE    PTCLDY    76  64  66 S9        30.02S                  
INDEPENDENCE   PTCLDY    72  66  80 S8        30.03S                  
FORT SCOTT     CLEAR     75  70  83 CALM      30.01S                  
PITTSBURG      MOCLDY    75  72  88 S5        30.02S                  

....Western Kansas....
  
CITY           SKY/WX    TMP DP  RH WIND       PRES   REMARKS
GOODLAND       CLEAR     74  53  48 SE8       30.04S                  
HILL CITY      CLEAR     80  58  46 E3        29.98R HX  80           
LIBERAL        CLEAR     80  53  39 E7        30.04S HX  80           
GARDEN CITY    CLEAR     78  57  48 SE7       30.02R                  
DODGE CITY     CLEAR     78  56  46 S7        30.01S HAZE             
PRATT          CLEAR     82  60  46 S9        30.01S HX  83           
MEDICINE LODGE   N/A     81  63  54 SE5       30.00R HX  82           

....Northeast Kansas....
  
CITY           SKY/WX    TMP DP  RH WIND       PRES   REMARKS
CONCORDIA      PTCLDY    82  58  43 S5        29.93S HX  82           
TOPEKA         PTCLDY    77  63  61 S7        29.95S                  
MANHATTAN      PTCLDY    77  63  61 SW7       29.95R                  
LAWRENCE       PTCLDY    77  69  76 SE8       29.96S                  
OLATHE         MOCLDY    76  70  82 S9        29.99F                  
EMPORIA        PTCLDY    79  68  69 S12       29.99S HX  81           

....Oklahoma....
  
CITY           SKY/WX    TMP DP  RH WIND       PRES   REMARKS
GAGE           CLEAR     81  62  52 S10       30.00R HX  82           
PONCA CITY     CLEAR     76  66  71 MISG      30.01S                  
BARTLESVILLE   CLEAR     71  66  84 S3        30.04S                  
TULSA          PTCLDY    75  63  66 SE5       30.03S                  
OKLAHOMA CITY  PTCLDY    71  66  84 S7        30.04R                  

Note: "fair" indicates few or no clouds below 12,000 feet with no
significant weather and/or obstructions to visibility.